Location: Godiavel Galaoual
(15.2485°N, 12.6604°W)
Time: 13:06:15
(UTC+00:00)

SL-4 R/B - Pass Details

Date: 27 February 2020
Orbit: 428 x 667 km, 51.6° (Epoch: 30 March)

Event Time Altitude Azimuth Distance (km) Brightness Sun altitude
Rises 19:30:35 0° 308° (NW) 2,928 6.5 -8.7°
Reaches altitude 10° 19:33:10 10° 297° (WNW) 1,987 5.8 -9.3°
Maximum altitude 19:37:09 30° 237° (WSW) 1,082 4.3 -10.3°
Drops below altitude 10° 19:40:54 10° 175° (S) 1,862 4.7 -11.2°
Sets 19:43:16 0° 164° (SSE) 2,711 5.4 -11.7°
